RH
65 60 55 50 46 42 36 30 26 22 18 15 13 14 16 16 14 14 12 9 6 5 4 5 8 9 8 12 13 12 18 23 23 24 25 25 24 26 30 31 31 30 28 26 24 23 22 20 18 18 18 17 17 17 17 17 18 18 18 18 18 18 18 19 18 18 18 18 18 19 18 18 16 15 14 13 13 14 14 15 15 15 16 15 16 16 16 16 16 16 15 15 14 14 14 14 13
65 60 54 49 45 41 36 30 27 22 18 15 13 14 16 16 15 14 12 8 6 5 4 6 7 7 7 10 12 12 17 24 25 26 26 26 27 30 31 31 31 31 31 30 29 29 26 21 17 14 13 13 14 13 13 12 11 11 11 11 11 10 10 11 10 10 10 10 11 11 12 12 13 14 15 15 16 16 17 17 17 17 17 17 17 17 17 17 18 17 17 17 15 15 15 13 12
66 61 54 49 45 41 36 31 27 22 18 16 15 16 18 17 16 14 12 8 7 5 5 7 7 6 7 8 11 12 16 22 26 27 27 27 28 30 31 30 31 31 31 31 31 33 33 30 26 21 16 13 12 11 11 10 9 8 8 7 8 8 8 8 8 9 9 10 11 12 13 14 15 16 17 17 18 18 18 18 18 18 18 18 18 18 18 18 18 17 17 17 16 15 13 12 11
66 63 57 50 46 42 36 32 28 23 19 17 16 18 19 18 16 14 12 9 8 6 5 7 8 8 7 7 11 13 14 20 26 27 27 28 28 29 29 29 30 30 31 31 32 34 34 35 35 32 28 22 19 16 14 13 11 10 9 9 9 9 9 10 10 11 12 13 13 14 15 16 17 18 18 19 19 19 19 19 19 19 19 18 18 18 18 18 18 17 17 17 15 13 12 11 10
66 64 59 52 48 43 37 35 30 25 21 19 18 19 19 18 17 16 13 10 8 6 6 7 9 9 7 6 9 12 12 17 25 29 29 30 29 29 29 29 29 29 30 30 31 32 33 34 35 35 34 33 30 27 23 20 17 15 14 13 12 12 12 12 13 13 14 14 15 16 17 18 19 19 20 20 20 20 20 20 20 20 19 19 19 19 19 18 18 17 17 17 15 13 11 10 9
63 63 60 52 48 44 39 38 33 27 24 22 21 20 19 18 17 17 15 10 7 6 6 8 10 10 8 7 8 10 11 13 21 27 31 33 33 33 32 31 30 30 30 30 30 30 31 32 32 33 34 34 34 33 30 27 24 21 19 18 17 16 15 15 15 16 16 17 17 18 19 20 20 21 21 21 21 21 21 21 21 21 21 21 20 20 20 19 19 18 18 17 15 14 12 11 10
58 59 58 53 47 44 40 39 34 28 25 24 23 22 20 20 18 17 16 9 6 6 7 8 10 10 8 7 8 10 12 13 16 20 26 31 35 37 36 35 34 34 34 33 33 32 32 32 32 32 32 33 33 33 32 31 30 28 26 25 23 22 20 20 19 19 19 19 20 20 21 22 22 22 23 23 23 23 23 22 22 22 22 21 21 20 20 20 19 19 18 17 16 15 15 15 13
55 56 56 53 47 43 39 38 36 30 26 24 23 24 24 21 20 18 16 10 5 6 7 8 8 9 8 6 7 9 13 15 16 17 20 25 29 32 33 32 33 34 35 35 35 35 34 34 33 33 33 33 32 32 32 32 31 31 31 30 29 27 26 25 25 24 24 23 24 24 24 24 24 24 24 24 24 23 23 23 22 22 22 21 21 20 20 19 19 19 18 17 17 16 18 18 15
54 53 52 52 49 43 39 40 40 35 29 24 22 25 24 22 24 23 18 11 5 6 7 8 7 7 7 7 7 8 12 15 16 18 20 21 21 22 23 24 26 27 29 30 31 31 32 32 32 32 32 32 32 32 31 31 31 31 30 30 30 30 29 28 28 27 27 27 26 26 26 25 25 24 24 23 23 22 22 21 21 20 20 19 19 18 18 18 17 18 17 16 16 16 17 18 16
54 52 50 50 49 45 41 41 43 40 32 27 26 26 24 22 24 25 21 13 7 7 8 9 8 6 6 7 7 8 11 13 15 17 19 19 19 19 20 20 20 20 21 22 23 24 25 26 26 26 26 26 26 26 25 25 25 25 25 26 26 27 27 27 27 27 27 26 26 25 25 24 23 22 21 21 20 19 18 18 17 17 16 15 15 14 14 14 14 14 14 12 10 11 14 17 16
53 51 49 48 49 47 42 39 42 42 34 29 28 28 26 22 21 23 22 15 8 7 10 10 8 6 6 7 7 8 9 11 14 15 15 15 16 17 18 19 19 19 19 19 19 19 20 20 20 20 20 20 20 19 19 19 19 19 19 19 20 20 21 21 21 21 22 22 21 21 21 20 19 19 18 17 16 15 14 13 12 12 11 10 9 9 9 9 8 8 7 6 5 6 10 15 15
51 50 48 47 48 49 44 39 43 42 37 32 29 30 29 24 23 24 21 17 11 8 10 9 8 7 6 7 7 8 8 9 11 11 11 11 12 13 14 17 18 19 19 19 19 19 19 18 18 18 18 17 17 17 17 16 16 16 16 16 15 15 15 15 15 15 15 15 15 15 15 14 14 14 13 12 11 10 9 8 8 6 6 5 4 4 4 4 4 4 4 4 3 5 7 11 15
50 48 45 46 48 49 45 41 43 41 40 40 37 34 32 30 29 28 24 21 16 9 9 10 9 8 7 7 6 8 8 8 8 7 6 7 8 9 11 13 14 15 16 18 18 18 17 16 15 14 14 13 13 14 13 13 13 13 13 13 12 12 12 12 12 11 11 11 11 11 10 10 9 9 8 7 6 6 5 4 4 3 3 2 3 3 3 3 3 4 4 4 4 6 7 9 17
50 47 43 45 47 50 47 43 44 40 39 42 41 39 36 34 32 30 27 24 20 12 9 10 10 8 6 7 6 6 8 8 7 5 5 5 6 7 8 10 10 10 11 14 15 15 15 14 13 12 11 10 10 10 10 9 9 9 9 9 9 9 9 9 9 9 8 8 8 8 7 6 6 5 4 4 3 3 3 3 3 3 3 3 3 4 4 4 4 5 4 5 5 6 6 8 16
52 48 44 45 46 50 48 45 45 39 37 40 41 42 39 35 33 31 28 23 21 15 9 9 9 8 7 7 7 7 8 8 6 4 4 4 5 5 6 7 8 8 8 10 12 12 12 12 11 10 10 9 8 8 8 7 7 6 6 6 6 6 6 6 6 5 5 5 5 5 4 4 3 3 3 3 3 3 3 3 4 4 4 4 4 4 5 5 5 5 5 6 5 5 6 7 11
50 48 44 44 48 51 49 47 44 37 36 38 39 40 39 37 34 32 28 23 23 18 11 9 8 8 7 6 6 7 7 7 6 4 4 4 4 4 4 5 6 6 7 7 9 10 10 10 10 9 9 8 7 6 6 5 5 4 3 3 3 3 3 3 3 3 3 3 3 3 3 3 3 3 3 3 4 3 4 4 4 4 5 5 5 5 5 5 6 5 6 6 6 6 6 6 11
41 47 45 45 48 51 53 51 46 38 36 37 39 40 41 39 36 33 29 25 26 23 15 10 8 8 7 5 5 5 6 6 5 4 3 4 4 4 4 4 5 5 6 5 6 7 7 8 9 9 7 6 6 5 4 4 3 3 2 2 2 2 2 2 2 2 2 2 2 3 3 3 3 4 4 4 4 4 4 5 5 5 5 5 5 5 5 5 6 6 6 6 6 6 6 12 19
31 41 44 44 47 53 56 53 47 40 38 39 39 41 41 38 38 34 30 29 28 26 20 12 9 9 7 5 4 4 5 5 5 5 3 3 3 4 4 4 4 5 5 4 4 5 5 5 6 7 6 5 4 3 3 3 3 3 2 2 2 2 2 2 2 2 3 3 3 3 3 4 4 4 4 4 5 5 5 5 5 5 5 5 5 5 5 6 6 6 6 6 6 6 6 17 21
24 31 39 41 45 55 56 53 49 42 39 40 39 41 40 38 39 34 31 31 29 28 25 14 9 9 8 6 4 4 4 4 5 5 4 3 3 3 4 4 4 4 4 4 3 3 3 4 4 4 4 4 3 3 3 3 3 3 3 2 3 2 2 3 3 3 3 3 3 3 4 4 4 4 4 5 5 5 5 5 5 5 5 5 5 5 5 6 6 5 6 5 6 6 5 10 10
18 23 32 35 36 47 54 54 52 46 40 38 41 42 39 41 39 36 33 30 31 31 26 17 12 9 9 8 4 4 3 3 4 4 4 3 3 3 3 4 4 4 4 4 4 4 3 3 3 4 3 3 3 3 3 3 3 3 3 2 3 3 3 3 3 3 3 3 3 3 4 4 4 4 5 5 5 5 5 5 5 5 5 5 5 5 5 5 5 5 5 5 5 6 5 5 5
13 15 22 27 27 35 48 56 54 49 44 37 39 40 42 45 40 39 33 28 37 37 27 23 20 12 9 9 6 4 3 3 4 4 4 3 3 3 3 4 4 4 4 5 5 4 4 3 3 3 4 4 3 3 3 3 3 3 3 3 3 3 3 3 3 4 4 4 4 4 4 4 4 4 5 5 5 5 5 5 5 5 5 5 5 5 5 5 5 5 5 5 5 5 5 5 5
11 11 14 19 22 26 35 48 52 50 47 39 38 39 43 46 43 44 35 31 45 41 30 28 26 18 11 9 7 4 3 3 3 4 4 4 4 4 4 4 4 4 4 5 5 4 4 3 3 3 3 3 3 3 3 3 3 3 3 3 3 3 3 3 3 4 4 4 4 4 4 4 5 5 5 5 5 5 5 5 5 6 5 5 6 5 5 5 5 5 5 5 5 5 5 5 5
11 10 11 13 18 21 21 31 43 51 49 42 42 41 42 46 49 50 39 41 50 44 36 31 28 25 17 12 8 5 3 3 3 3 3 3 4 4 4 4 4 4 4 4 4 5 4 4 3 3 3 3 3 3 3 3 3 3 3 3 4 4 4 4 4 4 4 4 4 5 4 5 5 5 5 5 5 5 5 6 5 5 5 5 5 5 5 5 5 5 5 5 4 5 4 5 5
12 10 9 11 13 17 18 18 27 42 49 49 47 42 43 50 55 50 42 51 57 47 40 34 32 30 22 16 11 7 5 3 3 2 2 3 3 3 3 4 4 4 4 4 4 4 4 4 4 3 3 3 3 3 3 3 3 3 3 4 4 4 4 4 4 4 4 5 5 5 5 5 5 5 5 5 5 5 5 5 5 5 5 5 5 5 5 5 5 5 5 5 4 5 4 5 4
13 12 9 10 10 12 17 16 16 25 41 55 52 44 47 54 52 42 45 62 62 48 39 37 36 32 27 22 14 9 6 4 3 2 2 3 3 3 3 3 4 4 4 4 3 4 3 4 4 3 4 3 3 3 3 3 3 3 3 3 4 4 4 4 5 4 5 5 5 5 5 5 5 5 5 5 5 5 6 5 5 6 5 5 5 5 5 5 5 5 5 5 4 5 4 5 4
15 14 12 10 9 9 12 15 17 15 26 47 55 49 50 57 47 33 52 73 63 47 40 42 41 35 32 26 18 11 7 5 3 3 3 3 3 2 3 3 3 3 3 4 3 3 3 3 3 3 3 3 4 3 3 3 3 3 3 3 3 4 4 4 4 4 5 5 5 5 5 5 5 5 5 5 6 5 5 5 5 6 5 5 5 5 5 5 5 5 5 5 5 5 5 5 4
17 15 13 11 10 9 9 11 16 15 17 34 57 60 54 56 41 29 61 81 63 50 48 50 47 41 37 30 25 17 9 6 3 4 5 3 4 3 3 3 3 3 3 4 3 3 3 3 3 3 3 3 3 4 3 3 3 3 3 3 3 3 4 4 4 4 4 4 5 5 4 5 5 5 5 5 5 5 5 5 5 5 5 5 5 5 5 5 5 5 5 5 5 5 5 5 4
18 15 14 12 10 9 9 8 11 16 15 24 52 61 52 46 33 34 70 83 68 58 55 55 52 47 44 36 31 24 13 8 5 7 7 4 4 3 3 4 3 3 3 4 4 4 3 3 3 3 3 3 3 3 3 3 3 3 3 3 3 3 3 3 3 4 4 4 4 4 4 5 4 5 5 5 5 5 5 5 5 5 5 6 5 5 5 5 5 5 5 5 5 5 5 5 4
19 16 14 12 12 10 10 9 9 13 15 30 51 45 39 41 33 47 78 83 74 64 58 59 57 52 49 42 36 30 20 11 7 8 8 5 5 4 4 4 4 3 3 4 4 4 4 3 3 3 3 3 3 3 3 4 3 3 3 3 3 3 3 3 3 3 3 4 4 4 4 4 4 5 4 5 5 5 5 5 5 5 5 6 5 6 5 5 5 5 5 5 5 4 4 4 4
21 17 15 12 13 10 10 10 9 11 12 42 65 37 30 45 44 61 81 82 76 65 63 66 63 59 55 50 42 34 27 17 11 9 8 7 5 5 5 5 4 4 3 4 4 4 4 4 3 3 3 3 3 3 3 4 3 3 3 3 3 3 3 3 3 3 3 3 4 4 4 4 4 4 4 5 4 5 5 5 5 5 5 5 5 5 5 5 5 5 5 4 4 4 4 3 3
24 19 16 13 13 11 11 10 10 12 9 40 71 42 29 44 52 73 84 81 77 65 65 70 68 66 65 61 50 39 33 26 18 13 10 8 6 5 5 6 5 4 4 4 4 4 4 4 4 4 3 3 3 3 3 3 3 3 3 3 3 3 3 3 3 3 3 3 3 4 4 4 4 4 4 4 4 4 4 4 4 4 5 4 5 5 4 5 4 4 4 3 4 3 3 3 3
26 22 17 14 14 11 11 10 10 13 11 30 56 44 37 45 56 82 89 82 82 74 67 68 68 68 69 67 58 47 40 34 26 17 12 9 7 7 6 7 7 4 5 4 4 4 4 4 4 4 4 4 3 3 3 3 3 3 3 3 3 3 3 3 3 3 3 3 3 3 3 3 3 3 4 4 4 4 3 4 4 3 4 3 4 3 3 4 3 3 3 3 3 3 3 3 4
27 24 19 15 15 13 10 11 10 12 11 18 29 29 38 54 67 86 91 83 85 84 75 70 69 70 70 69 64 57 47 39 32 23 17 12 10 10 9 10 9 6 6 5 5 4 4 4 4 4 4 4 4 3 3 3 3 2 3 3 2 3 2 2 3 2 3 2 3 3 3 3 3 3 3 3 3 3 3 3 3 3 3 3 3 3 2 3 3 3 3 3 4 5 7 8 9
27 26 22 18 17 14 11 10 10 12 11 12 15 16 28 54 76 90 95 90 87 88 84 75 71 72 73 70 67 64 53 44 37 29 22 16 13 12 11 11 10 8 7 6 6 5 5 5 5 5 5 4 4 4 4 3 3 3 3 3 3 3 3 2 2 2 2 2 2 2 2 2 2 3 2 2 3 2 3 2 3 3 2 3 2 3 3 4 5 6 7 8 10 13 15 16 17
32 30 25 21 18 15 13 11 10 11 11 10 12 13 17 35 68 92 98 96 91 90 92 84 74 73 77 74 67 65 60 50 42 35 27 20 16 14 14 15 13 11 9 9 8 7 6 6 6 8 7 6 5 4 4 4 4 4 4 4 4 4 3 3 3 3 3 2 3 2 2 2 2 2 2 2 2 2 3 2 2 3 3 3 4 5 7 9 12 14 15 17 18 20 19 20 19
35 33 26 21 19 16 14 11 10 11 11 10 9 12 13 17 45 79 95 97 90 86 93 93 84 75 77 80 70 62 61 56 46 38 32 26 21 19 20 21 18 14 12 12 11 9 8 7 8 9 9 9 8 7 6 6 6 5 5 5 5 5 4 4 4 4 4 3 3 3 3 3 3 3 3 3 3 3 4 4 5 6 7 9 11 13 16 18 20 20 20 21 20 21 20 19 18
36 33 29 23 20 18 16 12 10 11 11 11 10 9 12 11 21 44 65 82 86 82 85 92 95 85 78 82 76 63 58 56 50 43 37 32 26 23 24 23 21 18 16 14 14 12 11 10 9 10 10 10 10 10 9 9 9 8 8 7 7 7 6 6 6 6 6 5 5 5 5 5 5 5 5 6 7 7 9 11 13 15 17 19 20 21 22 22 22 21 21 20 19 19 18 18 17
38 34 30 25 21 18 17 14 11 11 11 11 11 9 10 11 11 17 27 49 73 86 89 90 97 97 85 80 75 65 57 54 53 49 45 39 33 28 26 25 23 22 20 18 17 16 15 14 13 12 12 12 12 12 12 12 11 11 10 10 9 9 9 9 9 9 9 8 8 9 9 9 9 10 11 12 14 16 18 20 22 22 23 23 23 23 23 22 21 21 20 19 19 18 17 16 15
41 36 31 26 22 20 18 16 12 11 12 10 11 11 10 10 10 11 13 22 45 71 87 92 98 102 95 84 77 69 59 54 54 55 52 47 41 34 29 28 27 26 24 23 22 21 20 17 15 15 14 15 16 16 15 15 14 14 13 13 12 12 12 12 12 12 12 12 13 13 14 15 16 17 19 21 22 24 24 25 25 24 24 23 23 22 22 21 20 20 19 18 17 16 15 14 13
44 38 32 27 23 21 18 17 14 12 12 11 11 11 10 11 10 10 11 12 21 38 61 81 91 97 101 95 86 78 67 56 55 59 58 54 50 41 34 32 30 29 27 27 27 25 23 21 19 19 19 19 20 19 19 18 17 16 16 16 16 15 15 15 15 16 16 17 17 19 21 22 23 25 26 27 27 27 27 26 25 24 23 23 22 22 21 21 20 19 18 17 16 15 13 11 10
45 38 33 28 24 23 20 18 17 14 13 11 12 12 10 11 11 10 10 10 13 18 34 57 69 81 99 102 92 86 81 68 60 64 66 62 57 49 41 36 33 32 31 30 30 28 26 25 24 24 24 24 23 22 21 20 19 19 19 19 19 19 19 19 20 20 21 22 23 25 26 27 28 29 29 29 28 27 26 25 25 24 23 23 22 21 21 20 19 18 16 15 13 12 10 8 6
44 39 32 27 23 22 20 19 17 15 14 12 12 13 10 10 10 10 10 9 11 12 20 37 47 61 86 101 98 94 91 82 71 71 74 69 64 58 50 42 37 35 34 33 32 31 30 29 28 28 28 27 25 24 23 21 21 22 22 22 22 23 23 24 24 24 25 26 28 30 31 31 31 30 30 29 28 27 26 25 24 24 23 22 22 20 19 18 17 15 14 12 10 8 7 5 4
45 43 32 25 22 22 20 19 18 16 14 14 13 12 11 11 10 10 10 9 10 11 14 23 32 43 64 85 98 101 98 91 83 79 80 78 73 68 60 50 43 39 36 35 34 33 32 32 32 33 32 30 27 26 25 24 24 25 26 26 27 27 27 28 28 28 29 31 33 34 34 33 32 31 30 28 28 27 26 25 24 23 22 21 20 19 17 16 14 12 10 9 7 5 4 3 3
47 43 30 24 22 21 20 19 17 16 15 14 14 13 12 13 12 10 10 9 9 10 11 14 20 29 43 62 82 95 96 93 91 88 87 86 82 77 70 60 52 45 40 37 36 35 36 38 38 37 35 32 30 29 29 29 29 29 30 31 31 31 31 32 32 33 33 35 35 36 35 33 32 31 29 28 27 26 25 24 23 22 21 20 19 17 15 13 11 9 8 6 5 4 3 3 3
49 42 30 27 24 21 22 22 20 18 17 16 15 14 14 14 15 13 11 10 9 9 10 13 19 26 37 47 60 75 83 85 89 92 92 91 89 84 77 71 63 55 49 45 42 42 43 44 43 40 37 35 34 34 33 33 34 34 35 35 35 35 36 36 36 37 37 37 36 35 34 33 31 30 29 28 27 26 25 24 23 22 20 19 17 15 13 11 9 7 5 4 3 3 3 2 3
45 40 34 31 27 24 22 20 21 20 17 17 16 15 15 15 16 15 13 11 10 9 9 13 22 33 39 39 44 58 70 77 82 88 93 95 95 93 89 84 77 69 63 57 52 50 49 48 45 43 41 40 39 38 38 38 38 39 39 39 39 39 39 40 39 39 38 37 36 35 34 33 32 30 29 28 27 25 25 23 22 21 18 17 14 12 10 8 7 5 4 4 3 3 3 3 3
35 37 38 37 35 38 37 30 29 28 21 18 16 16 17 17 17 16 14 12 11 10 9 10 17 29 35 33 37 49 62 73 81 85 92 99 101 100 99 96 90 82 74 67 62 58 55 54 52 49 47 45 44 43 42 42 43 44 43 42 42 41 41 41 40 40 38 37 36 35 34 33 32 31 29 28 27 25 24 22 20 18 15 13 11 10 8 6 5 4 4 3 2 3 3 2 3
35 33 37 44 45 46 46 39 35 32 25 20 17 18 21 21 18 18 16 13 11 10 10 10 12 18 26 28 31 43 55 69 81 85 90 98 101 101 102 100 94 86 79 73 68 65 62 61 58 55 53 51 50 48 47 48 49 48 47 45 44 43 42 42 41 40 39 37 36 35 34 33 32 31 29 27 26 24 21 19 16 14 12 11 9 8 7 5 5 4 3 3 3 3 3 3 3
43 48 54 55 47 39 36 32 29 27 25 22 20 19 21 19 19 19 17 13 12 11 10 11 15 18 20 22 24 34 48 61 77 88 93 98 101 101 102 101 95 88 83 78 74 72 68 65 62 59 58 56 54 54 54 54 53 51 49 47 46 45 44 44 43 41 40 38 37 36 35 34 32 31 29 26 24 21 18 15 13 11 10 9 8 6 5 5 4 3 3 3 3 3 3 3 3
50 61 62 57 48 38 31 27 26 25 24 23 22 23 22 19 21 22 16 13 12 12 11 13 20 21 20 22 22 27 42 59 78 93 98 100 100 100 100 101 99 94 88 83 77 73 70 67 66 63 61 59 58 59 58 57 56 54 52 50 50 49 47 46 44 42 41 39 38 37 35 34 32 29 27 23 20 17 15 13 11 10 8 7 6 5 5 4 3 3 3 3 3 3 3 3 3
45 47 50 51 45 38 34 31 31 28 23 23 23 23 22 20 21 20 14 13 12 11 11 14 18 19 20 24 28 34 49 69 87 97 100 101 99 99 100 101 100 94 87 82 77 73 71 69 68 66 64 63 62 62 62 61 59 57 56 55 53 51 49 47 45 43 41 40 39 37 35 33 29 26 23 20 17 15 13 11 9 8 7 6 5 5 4 4 4 3 3 3 3 3 3 4 4
43 42 47 47 39 47 57 45 32 31 26 22 21 18 18 18 17 16 14 13 12 12 12 11 17 27 30 30 33 43 61 79 93 99 100 100 99 100 101 99 96 91 85 81 78 75 74 73 71 70 68 66 65 66 65 64 63 61 60 58 55 52 49 47 45 43 42 41 38 36 33 29 26 22 20 17 15 13 11 10 8 7 6 5 5 4 4 4 4 4 3 3 4 4 4 4 4
41 38 37 40 45 65 77 51 29 39 40 23 17 18 16 16 16 15 14 13 11 11 11 11 28 49 54 50 51 60 73 87 97 100 98 99 100 101 100 98 94 91 87 83 81 80 79 77 74 72 71 69 69 70 69 68 67 65 62 59 55 53 50 48 46 44 42 39 36 33 29 25 22 19 17 15 13 11 10 8 7 6 6 5 4 4 4 4 4 4 4 4 4 4 4 4 4
38 36 38 54 64 65 73 67 52 56 58 36 20 19 16 12 14 14 11 12 11 11 11 13 33 61 71 72 77 79 84 94 99 98 97 99 101 101 99 96 94 92 89 87 87 85 82 79 77 75 74 74 74 74 74 73 71 67 63 59 56 54 52 49 46 43 40 37 33 29 25 22 20 17 15 13 11 10 9 8 7 6 5 5 5 4 4 4 4 4 4 4 4 4 4 5 5
45 47 53 72 81 68 72 91 85 76 80 65 36 28 25 13 10 12 10 10 10 10 12 12 27 60 82 85 86 88 91 96 98 98 98 100 100 99 98 96 94 92 91 91 89 86 84 82 81 81 80 79 79 79 79 77 73 68 63 60 58 55 52 48 45 41 37 33 29 26 23 20 18 15 13 11 10 9 8 7 6 6 5 5 5 5 4 4 4 4 4 5 5 5 5 5 5
62 58 61 71 78 72 71 90 97 91 94 82 53 41 33 17 12 14 11 9 9 9 11 12 20 49 79 90 91 95 98 97 96 99 99 98 97 97 97 97 96 94 93 92 90 88 88 87 87 86 84 83 85 85 83 78 72 67 64 61 59 55 50 46 41 37 33 29 26 23 20 17 15 13 11 10 9 8 7 7 6 6 5 5 5 5 5 5 5 5 5 6 6 6 6 5 6
72 73 85 87 84 85 86 95 98 91 88 83 76 65 40 21 20 18 12 11 11 11 11 15 25 46 73 92 97 100 101 99 98 100 99 97 97 98 99 99 98 97 95 94 93 93 94 92 91 89 87 88 89 87 83 77 72 69 65 62 58 52 47 42 37 33 29 26 23 19 17 14 12 10 9 9 8 8 7 7 6 6 6 5 5 5 5 5 6 6 6 7 7 7 7 6 6
65 77 88 89 94 100 102 101 92 87 91 91 97 88 47 22 23 19 14 14 14 14 14 23 46 66 80 95 101 100 100 100 100 100 100 99 99 100 100 101 100 99 98 97 97 97 97 95 93 91 91 92 91 87 82 77 73 69 64 59 54 48 43 38 33 29 25 21 18 15 13 11 10 9 9 8 8 8 7 7 6 6 6 6 6 6 6 6 7 7 7 8 7 7 7 7 6
Wind_Speed
22 22 22 23 23 22 22 23 24 23 23 24 23 20 17 14 15 16 18 21 21 20 19 18 17 17 17 18 16 13 13 14 14 13 13 13 12 11 10 11 11 12 13 13 12 11 12 12 13 13 14 14 15 15 15 15 15 15 16 16 16 16 16 16 16 16 16 16 17 16 16 16 15 15 16 16 16 17 17 17 18 19 19 20 21 21 23 23 23 24 23 23 24 25 25 25 25
23 23 23 22 22 22 22 23 24 24 23 24 23 21 17 14 15 16 20 22 21 19 18 17 16 15 16 18 16 12 12 13 14 13 14 14 13 13 12 13 13 14 14 14 13 12 12 12 13 13 13 13 13 13 13 13 13 13 14 14 14 14 14 15 15 15 15 15 15 14 14 14 14 14 15 15 16 16 17 18 19 20 20 21 21 22 23 24 24 24 23 23 24 24 24 24 24
24 23 23 23 22 22 22 23 24 24 24 24 24 22 16 15 16 17 20 22 22 20 18 17 16 15 15 17 15 13 11 11 13 14 15 15 14 14 14 15 15 15 14 14 13 13 14 13 13 13 12 12 12 12 12 12 11 11 11 12 12 12 12 12 12 12 13 13 13 13 13 14 14 14 15 16 17 18 18 19 20 21 22 22 22 23 24 25 25 25 24 24 24 24 24 24 24
25 25 24 24 22 22 22 22 24 24 25 24 24 22 17 16 17 18 20 21 22 21 19 17 16 17 16 15 14 13 11 11 13 13 14 14 15 15 15 16 17 16 14 13 13 13 14 14 14 14 13 13 12 12 12 12 11 11 11 11 11 11 11 11 12 12 12 13 13 13 14 15 15 16 17 18 19 20 21 21 22 22 23 23 23 24 25 25 25 25 25 24 23 24 24 24 24
27 26 26 25 23 22 22 23 24 24 25 25 24 22 18 18 18 19 21 21 21 21 20 16 15 18 18 15 14 14 12 11 12 13 13 14 15 16 16 17 17 17 15 14 14 14 14 14 14 14 14 14 14 14 13 13 12 12 12 12 12 12 12 12 13 13 13 14 14 15 16 16 17 18 19 20 21 21 22 22 23 23 23 23 23 24 24 24 24 24 24 24 23 23 23 23 24
28 28 27 27 24 23 22 23 25 25 25 25 25 23 19 19 19 20 22 22 21 21 21 16 15 20 20 16 15 15 12 10 11 12 12 13 15 16 18 18 18 17 15 15 14 15 15 15 15 14 15 15 15 15 15 14 14 14 14 13 13 13 13 14 14 15 15 16 16 17 18 18 19 20 20 21 22 22 22 22 22 22 22 22 22 23 23 23 23 23 23 23 23 23 23 23 23
28 29 28 28 26 24 22 23 25 26 26 25 25 23 19 19 20 23 23 20 20 20 20 16 15 20 21 18 16 15 13 11 10 11 10 11 14 16 18 18 18 17 16 16 15 16 16 16 16 15 15 15 15 15 15 15 15 15 15 15 15 15 15 16 16 17 17 18 19 19 20 20 21 21 21 21 21 22 22 22 22 21 21 21 21 22 22 22 22 22 22 23 23 23 23 23 23
28 29 29 29 28 25 23 23 25 26 27 26 26 23 19 18 20 25 25 20 19 21 20 16 15 19 21 20 17 15 14 12 11 11 10 11 14 16 17 16 16 15 15 15 15 15 16 16 15 15 15 15 15 15 15 15 15 16 16 16 16 17 17 17 18 19 19 20 20 21 21 21 21 21 21 21 21 21 21 21 21 21 20 20 21 22 22 22 23 22 22 23 23 23 23 22 22
30 30 30 30 29 26 23 23 25 27 28 28 27 24 19 17 19 24 25 22 21 22 22 17 15 18 20 21 19 16 15 14 13 13 13 14 15 15 14 14 13 13 13 14 14 14 14 14 14 14 15 15 15 15 15 15 16 16 16 16 17 17 18 18 19 20 20 20 21 21 21 21 21 21 21 21 21 21 21 21 21 20 20 21 21 22 23 23 23 23 23 24 24 24 24 23 22
32 32 31 30 29 28 25 24 25 27 29 29 28 26 21 18 19 20 23 23 23 23 24 21 17 16 18 21 20 17 17 16 14 15 15 16 16 15 15 14 14 13 14 14 14 14 14 14 14 14 14 14 15 15 15 15 16 16 16 16 17 18 18 19 19 20 20 20 21 21 21 21 21 20 20 20 20 20 20 21 21 21 21 21 22 22 23 23 23 23 24 25 25 24 24 23 24
35 34 33 32 30 28 27 26 25 27 30 30 28 26 22 21 21 20 20 23 23 24 25 24 19 16 17 19 20 18 17 16 16 16 18 18 17 17 16 16 16 15 15 16 16 16 15 15 16 16 15 15 16 16 16 16 16 17 17 17 18 18 19 19 20 20 20 21 21 21 21 21 21 20 20 20 21 21 21 21 21 21 21 21 21 21 21 21 21 21 22 22 22 21 21 22 23
36 36 35 34 32 29 29 26 26 28 29 30 29 27 24 23 24 23 22 23 23 23 25 24 19 17 17 18 20 19 16 15 17 18 19 18 17 17 17 17 18 18 18 18 18 18 18 18 18 18 18 18 18 18 18 18 18 18 19 19 19 20 20 20 21 21 21 21 22 22 22 22 21 21 21 21 21 20 20 20 19 18 18 17 17 17 17 17 18 18 19 19 19 18 19 20 21
38 38 38 36 33 31 30 28 28 29 30 29 28 26 25 25 26 25 23 25 24 24 27 25 19 17 18 18 19 20 17 15 18 18 17 16 16 17 17 18 19 19 20 20 20 21 21 21 21 20 20 20 20 20 20 20 20 20 20 20 20 21 21 21 21 21 21 21 21 21 21 20 20 19 19 18 18 17 17 16 15 14 13 13 14 15 15 16 17 18 19 20 20 19 19 20 20
39 40 40 37 34 32 31 30 30 32 31 30 28 25 25 26 28 26 24 25 25 24 27 26 21 17 17 19 19 19 18 18 19 17 15 15 16 17 17 19 19 19 20 21 22 23 23 23 23 22 22 21 21 21 21 20 20 20 20 20 20 20 20 20 20 19 19 18 17 17 17 16 15 15 14 14 14 13 13 13 13 13 13 13 15 16 17 18 20 21 21 22 23 22 22 21 21
40 41 42 39 35 32 32 31 33 35 33 31 29 26 25 27 29 28 25 26 25 24 26 26 23 17 16 18 19 21 20 20 21 17 14 15 16 17 17 19 20 20 20 21 22 23 24 24 24 23 22 22 21 21 20 20 19 18 17 17 17 16 16 16 15 15 14 13 13 13 12 12 12 11 11 12 12 12 13 14 14 15 15 16 17 18 19 21 22 23 24 25 26 27 25 24 23
40 42 43 41 35 33 33 32 35 38 35 32 31 27 26 27 30 29 26 26 26 25 26 27 25 19 16 18 20 22 22 22 22 18 16 16 17 17 17 18 19 20 20 21 22 24 24 25 24 24 23 22 21 20 19 18 17 16 15 14 14 13 13 13 12 12 11 11 11 11 11 11 11 11 12 12 13 14 15 16 16 17 18 19 20 21 21 22 24 25 26 27 29 30 29 28 26
39 42 43 42 37 34 32 34 38 39 36 34 32 30 27 27 30 30 26 26 26 25 27 28 27 22 18 19 20 22 22 23 24 21 18 18 18 19 18 19 19 20 20 21 22 24 24 24 25 24 23 21 20 19 18 17 17 16 15 14 13 13 13 13 12 12 12 12 12 12 12 12 12 13 14 15 15 16 17 18 18 19 20 21 22 23 23 24 25 27 27 28 30 32 33 32 29
39 40 42 42 38 34 33 37 41 40 37 35 34 31 30 29 31 31 26 24 26 26 26 29 29 25 20 19 20 22 23 23 25 24 21 19 19 20 20 20 20 20 21 21 21 23 23 24 24 25 24 22 20 19 19 18 18 17 17 16 15 15 15 15 14 14 14 14 14 15 15 15 15 16 17 17 18 19 19 20 20 21 22 23 24 24 25 26 27 29 30 30 32 34 35 34 32
39 39 41 41 37 35 36 39 41 41 39 37 35 33 32 31 32 32 27 24 26 25 27 31 30 27 23 21 21 22 23 25 26 26 24 22 21 21 22 21 21 22 22 22 21 22 23 23 24 24 24 23 22 21 20 20 19 19 18 18 17 17 17 17 17 17 17 17 17 17 17 17 18 19 19 20 21 22 22 22 23 23 24 25 26 27 28 29 29 30 31 33 34 36 37 36 36
39 40 41 39 36 37 39 40 41 42 42 38 36 35 33 32 33 34 29 25 25 24 28 32 30 29 26 22 22 22 24 26 27 27 27 25 23 23 23 23 23 23 23 23 23 23 23 24 24 24 24 24 24 22 22 22 21 21 20 20 19 19 19 19 19 19 19 19 19 20 20 20 20 21 21 22 23 24 25 25 25 26 26 27 29 29 30 31 32 33 33 35 35 37 38 38 39
40 41 41 38 36 38 38 39 42 44 44 41 38 36 33 33 35 35 32 27 23 25 30 33 31 30 28 24 23 24 25 27 28 29 28 27 26 25 25 25 25 25 25 24 24 24 24 25 25 26 25 25 25 24 24 24 23 23 22 21 21 21 21 21 21 21 21 21 22 22 22 22 23 23 24 25 26 27 27 28 28 29 29 30 31 32 33 34 35 36 37 37 38 39 40 41 42
41 41 41 39 37 37 36 39 43 45 46 43 40 38 34 34 35 35 36 29 23 27 32 34 33 31 29 28 27 26 26 27 28 30 30 29 29 28 27 27 27 27 27 26 27 27 26 26 26 27 27 27 26 26 26 25 25 25 24 23 23 23 23 23 23 23 23 24 24 24 25 25 25 26 26 28 29 29 30 31 32 32 32 33 34 35 36 37 38 39 40 40 41 42 43 44 45
43 41 41 41 38 37 37 38 43 46 48 45 41 40 37 35 34 35 37 31 26 29 33 35 34 32 31 30 29 29 28 28 29 30 31 31 30 30 30 30 30 30 30 29 29 29 30 29 28 28 28 28 28 28 28 28 27 27 26 26 25 25 25 26 26 26 26 26 27 27 28 28 28 29 29 30 32 32 33 34 35 36 36 37 38 38 39 40 41 42 43 44 44 45 46 47 48
44 43 41 41 40 39 38 39 41 46 49 46 44 43 39 36 35 38 36 30 29 32 35 36 34 33 33 32 31 31 30 30 31 32 32 31 31 31 31 32 32 32 33 31 31 31 32 32 32 31 31 30 30 30 30 30 30 30 29 29 28 28 28 28 28 29 29 29 29 30 30 31 31 31 32 33 34 35 36 37 38 38 39 40 41 41 42 43 44 45 46 47 48 49 50 50 51
44 45 44 43 42 41 40 40 41 44 47 46 47 45 41 38 39 41 34 28 32 36 38 36 33 33 34 34 33 32 32 32 33 34 33 32 32 32 33 33 33 34 34 33 33 34 33 33 33 34 34 33 33 33 32 32 32 32 32 32 31 31 31 31 31 32 32 33 32 32 33 34 35 35 35 36 37 38 39 39 40 41 42 43 44 45 45 46 47 48 49 50 51 52 53 53 54
46 48 48 45 43 41 41 41 41 43 45 46 48 48 44 40 43 42 30 27 35 39 39 36 33 32 34 36 36 34 33 33 35 35 33 33 34 34 35 35 35 35 35 35 36 36 36 36 35 35 35 35 35 35 35 35 35 35 35 35 35 34 34 34 34 35 35 36 36 36 36 37 38 39 39 39 39 40 41 42 43 43 44 45 46 47 48 49 49 50 51 52 53 54 55 56 57
48 49 50 48 45 43 42 42 41 42 44 44 47 49 46 44 47 42 26 28 40 42 39 36 34 33 34 36 37 37 35 35 36 34 33 34 35 36 37 37 37 36 37 37 38 38 39 39 38 38 37 37 37 37 38 38 38 38 38 38 38 38 38 37 38 38 39 39 39 39 39 40 41 42 43 42 42 43 43 44 45 46 47 48 49 49 50 51 52 53 54 55 56 57 58 58 60
50 49 49 49 48 45 43 43 41 42 43 43 45 50 50 48 49 40 26 31 43 44 39 37 35 34 35 37 38 39 38 37 35 33 33 34 36 37 38 39 39 39 39 39 39 40 41 42 42 41 41 40 39 40 40 40 40 40 40 41 41 41 41 41 41 41 42 42 43 43 43 43 43 44 45 46 46 46 46 47 48 48 49 51 52 52 53 54 54 55 57 58 59 60 60 61 62
52 51 50 50 50 48 44 43 43 41 41 42 45 53 54 50 49 40 30 35 44 46 40 36 36 35 36 37 38 40 41 40 36 33 33 34 36 37 38 39 41 41 41 41 41 42 42 43 44 44 44 44 43 42 42 42 42 42 43 43 44 44 44 45 44 44 45 45 45 46 46 46 46 47 48 49 49 50 50 50 50 51 52 52 54 55 56 56 57 58 59 60 62 63 63 64 65
53 53 53 52 51 49 44 43 43 41 40 41 44 54 54 49 47 40 35 38 44 46 40 35 36 36 36 38 39 41 43 42 39 35 33 34 36 36 37 39 42 43 42 43 43 43 43 44 45 46 46 46 46 46 45 45 45 44 45 45 46 46 47 48 48 47 47 48 48 49 49 49 49 49 50 51 51 53 53 53 53 53 54 55 56 57 58 59 60 61 62 63 65 66 67 68 68
55 55 55 54 53 49 44 41 42 41 40 39 43 54 54 48 45 38 37 41 43 45 40 36 36 36 37 38 40 42 44 44 42 38 35 35 36 36 37 39 41 43 42 42 43 43 44 44 45 46 47 47 48 48 48 48 48 47 48 48 49 49 50 50 51 51 50 50 51 51 52 53 53 52 53 53 53 54 56 57 57 57 57 58 59 60 61 62 63 64 65 66 68 69 70 70 69
56 57 56 55 54 50 46 42 41 41 40 40 43 53 54 47 43 38 40 45 44 44 42 39 38 37 38 38 41 44 45 45 44 42 37 35 35 35 35 38 41 42 41 41 42 43 44 44 44 45 46 47 48 48 48 48 49 49 50 50 51 51 52 53 54 54 54 54 54 54 55 55 56 56 56 56 56 57 58 59 60 61 61 62 63 64 65 66 67 67 68 69 69 69 70 70 69
57 59 58 56 55 52 50 45 42 42 42 43 45 52 54 47 41 38 42 46 44 44 43 42 41 39 39 39 42 44 46 47 46 45 40 36 34 33 34 37 40 40 40 40 40 42 42 43 43 44 45 45 46 47 47 47 48 49 49 49 50 51 52 53 54 55 56 56 57 57 57 58 59 59 59 59 59 60 60 61 62 63 64 65 66 67 68 68 68 68 68 68 68 69 69 69 69
58 60 59 57 56 55 54 49 45 44 45 45 46 50 54 49 42 38 41 45 45 44 44 43 43 42 40 40 42 44 46 48 49 48 43 38 34 34 35 37 39 39 38 38 38 40 40 41 41 42 43 44 45 45 46 46 47 47 47 47 47 48 50 51 52 54 55 56 57 57 58 59 60 60 61 61 62 62 62 63 63 64 65 66 67 67 67 66 66 66 66 67 68 68 69 70 70
59 60 59 59 58 57 56 53 49 47 46 46 47 49 52 52 46 38 38 43 46 45 45 45 45 44 42 41 43 45 48 50 51 50 46 41 36 34 35 37 40 39 37 37 38 38 38 39 39 39 40 41 42 43 44 45 45 46 45 45 45 46 47 48 50 51 52 54 55 56 57 58 59 60 61 61 62 62 62 63 63 63 63 63 64 64 65 65 65 66 66 67 68 69 70 70 71
61 61 61 60 60 58 56 56 54 52 49 46 48 50 51 52 50 43 37 40 46 47 48 47 46 45 42 41 44 47 50 52 53 52 48 43 38 35 36 38 41 40 39 38 38 38 38 38 39 39 40 41 41 42 43 44 44 44 44 44 45 45 46 47 47 48 49 50 51 53 54 56 57 57 58 59 59 59 59 59 59 60 60 61 61 62 63 65 66 67 67 68 68 69 70 71 72
63 63 63 61 61 59 57 58 57 56 53 47 47 51 51 51 51 48 43 41 44 48 50 49 46 45 43 43 46 49 53 54 54 53 49 44 40 38 39 40 42 42 40 39 39 39 39 39 40 40 41 42 42 43 43 44 45 45 45 45 45 45 46 46 47 47 47 48 49 50 51 52 52 53 54 54 55 55 56 57 57 58 59 60 62 63 64 65 66 68 69 70 70 71 72 73 74
63 63 63 62 61 60 59 59 59 58 57 50 48 52 52 51 52 50 48 45 43 45 48 48 46 46 45 46 48 51 53 55 55 54 50 46 43 42 42 42 43 43 41 40 40 40 40 40 41 42 42 43 43 44 45 45 46 46 46 46 46 46 46 47 47 47 47 47 48 49 50 50 51 51 52 53 54 55 56 57 58 59 60 62 63 64 65 66 67 68 69 71 72 73 74 75 77
63 63 64 63 60 61 61 61 59 60 60 54 52 54 51 51 52 49 48 47 44 45 46 45 43 44 47 49 50 52 54 56 56 55 52 48 45 44 43 44 44 44 43 42 42 41 41 41 42 43 43 43 44 44 45 46 46 46 46 47 47 47 47 47 47 47 48 48 49 49 50 50 51 52 53 54 55 56 57 58 59 60 62 63 64 65 66 67 68 69 71 72 73 75 76 78 79
63 62 64 63 60 62 63 62 61 61 60 57 56 57 52 50 52 50 47 46 45 47 48 46 44 43 45 50 52 53 55 56 55 55 53 49 47 46 46 46 47 47 45 44 43 43 42 43 44 44 44 44 44 45 46 46 46 47 47 47 47 47 47 48 48 48 49 49 50 50 51 51 52 53 54 55 56 57 58 60 61 62 63 64 65 66 67 69 70 71 73 74 75 76 78 79 81
62 62 62 62 62 63 64 63 63 62 60 57 58 62 55 49 52 52 47 46 46 47 50 51 50 47 44 48 53 54 54 54 54 54 54 52 50 49 48 48 49 48 47 46 45 44 45 45 45 45 44 45 45 46 46 47 47 48 48 48 48 48 49 49 49 49 49 50 50 51 51 52 53 54 55 56 57 59 60 61 62 63 64 65 66 68 69 71 72 73 75 76 77 78 79 80 81
61 60 59 60 61 62 62 63 64 63 61 57 59 63 59 51 52 53 49 48 47 45 48 51 52 51 46 44 49 54 54 54 54 54 54 54 53 52 50 50 50 50 48 47 47 46 47 47 47 46 46 46 46 47 48 49 49 49 49 50 50 50 50 50 50 50 50 51 51 52 52 53 54 55 56 58 59 60 61 62 63 64 65 67 68 70 71 72 74 75 76 78 78 79 79 80 81
59 58 57 57 58 60 61 61 63 64 62 59 59 62 62 58 54 52 50 50 48 45 46 47 50 53 51 47 46 49 53 54 54 54 54 55 55 54 53 52 51 51 50 49 48 48 49 49 49 47 47 48 48 48 49 50 50 50 51 51 51 51 51 51 51 51 52 52 52 53 54 55 56 57 58 59 60 61 62 64 65 66 67 69 70 71 73 74 75 76 77 78 78 79 79 80 80
57 56 55 56 56 58 59 59 61 63 62 61 58 57 62 63 57 52 51 51 48 45 44 46 48 50 52 51 48 46 48 52 55 55 55 55 55 56 55 54 53 52 51 50 50 50 51 51 50 49 49 49 49 50 50 50 50 51 52 52 52 52 51 51 52 52 53 53 54 55 56 57 58 59 60 61 61 63 64 65 67 68 69 70 72 73 74 75 75 76 77 77 77 78 78 78 79
53 53 55 55 55 55 56 56 58 60 63 64 60 57 62 65 60 56 53 51 49 47 44 46 49 49 50 52 52 50 47 49 54 55 55 55 54 55 55 54 54 53 52 52 52 53 53 52 51 50 51 51 50 50 50 51 51 52 52 53 52 52 52 52 53 53 54 54 55 56 58 59 60 60 61 62 63 64 66 67 68 69 71 72 73 74 75 75 75 75 76 76 76 76 77 77 78
50 51 53 54 54 55 55 56 56 57 63 65 62 60 63 65 63 60 57 54 51 50 47 46 47 48 50 52 54 54 49 47 52 55 55 54 53 54 54 54 54 53 53 54 54 54 54 53 52 52 52 52 52 51 51 52 52 53 53 53 53 52 53 53 54 54 55 56 57 58 59 59 60 61 63 64 65 66 68 69 70 71 72 73 74 74 74 74 74 74 75 75 75 76 76 76 77
47 49 50 52 53 53 55 57 55 55 62 63 60 60 60 63 64 60 59 57 53 53 51 48 48 48 49 52 54 56 53 49 49 53 55 54 53 53 53 53 53 53 53 54 55 55 55 54 53 53 53 53 53 53 53 53 53 54 53 53 53 53 54 54 55 55 56 57 58 58 59 60 61 63 64 65 67 68 69 70 71 72 73 73 74 74 74 74 74 74 74 74 74 75 75 76 76
43 44 43 44 47 48 50 54 54 58 63 61 59 58 57 63 65 60 59 60 56 55 55 53 52 49 49 52 54 55 56 52 50 51 54 54 53 53 52 52 52 52 53 53 55 55 56 55 54 54 54 54 54 54 54 54 54 54 53 53 54 54 55 55 56 57 57 58 59 59 60 61 63 64 65 66 67 68 69 70 71 72 73 73 73 74 74 74 74 74 74 74 74 74 75 75 76
40 39 38 40 44 46 49 53 56 62 64 61 59 59 59 64 66 61 61 62 57 56 56 55 54 51 49 52 54 53 55 56 53 52 53 54 54 54 53 52 52 52 52 54 55 56 56 55 54 54 55 55 55 55 55 55 54 54 53 54 54 55 56 56 57 58 59 59 60 61 62 63 64 65 66 67 68 69 69 70 71 71 72 72 73 73 73 74 74 74 74 73 74 74 75 76 77
39 38 38 40 42 47 52 54 57 60 60 58 57 57 61 65 64 62 62 60 55 55 55 56 55 53 50 52 54 53 54 55 54 53 53 54 54 53 53 52 51 52 53 55 56 56 55 54 54 55 55 56 56 56 56 55 54 54 54 54 54 55 57 57 58 59 60 60 61 62 63 64 65 66 67 68 69 70 70 70 71 71 71 72 72 73 73 73 73 73 74 74 74 75 76 77 77
41 40 41 43 43 47 52 52 53 55 56 57 57 60 64 64 61 62 62 59 57 57 57 57 57 54 51 52 54 54 53 53 52 52 52 53 53 53 52 50 50 52 53 55 55 55 55 55 55 56 56 57 56 56 55 55 54 54 54 55 56 57 58 59 60 60 61 62 63 64 65 66 66 67 68 69 69 70 71 71 71 71 71 72 72 73 73 73 73 73 74 75 75 76 77 77 78
43 42 43 45 45 45 47 49 50 52 55 58 60 63 65 63 61 63 63 62 60 60 59 58 57 53 50 50 51 52 53 51 51 51 52 53 53 51 49 47 48 50 52 54 54 54 55 55 56 56 57 57 56 55 55 54 54 55 55 57 58 59 60 60 61 62 63 64 65 66 67 67 68 68 69 70 71 71 72 72 72 72 73 73 73 73 73 73 73 74 74 75 76 76 77 77 77
43 45 46 45 44 43 45 49 50 51 57 59 58 61 63 63 63 61 62 62 58 57 58 57 55 51 48 48 49 50 50 49 48 50 51 51 50 48 46 47 48 50 52 53 53 53 55 55 56 56 56 56 55 55 55 55 55 56 57 58 59 60 61 62 62 63 64 65 66 67 68 68 69 70 71 71 72 72 73 73 73 74 74 74 73 73 73 73 73 74 75 75 76 76 77 77 77
43 45 45 43 44 44 45 48 49 50 56 57 56 59 60 62 62 58 60 62 58 55 55 55 55 53 50 49 49 49 49 48 48 48 49 48 47 47 47 47 48 50 51 51 52 53 54 55 55 55 56 56 55 55 55 55 56 58 59 60 61 61 62 63 63 64 65 66 67 68 69 70 71 72 72 73 73 73 74 74 75 75 75 74 74 74 74 74 74 74 75 75 76 76 76 77 76
41 42 42 42 44 45 44 45 47 49 54 56 56 57 59 62 61 59 61 63 61 58 56 55 56 56 54 52 52 51 50 50 49 48 48 49 49 49 48 47 48 49 50 50 51 52 52 53 53 54 55 56 55 55 55 56 58 59 60 61 62 62 62 63 64 65 66 67 68 70 71 72 72 73 73 73 74 74 75 75 76 75 75 75 75 75 75 75 75 75 75 75 75 75 75 75 75
40 41 42 42 43 44 45 46 47 48 51 55 56 57 58 58 57 58 60 62 61 61 57 54 55 56 56 55 53 52 50 50 49 49 49 51 51 50 48 48 48 48 48 49 50 51 51 52 53 54 56 56 55 56 56 58 60 61 61 62 62 63 63 64 65 66 67 69 70 71 72 73 73 73 73 74 74 75 76 76 76 76 76 76 76 76 76 76 76 75 75 74 74 74 74 73 72
40 40 40 41 41 41 43 46 46 46 48 50 53 56 54 51 52 57 59 60 62 61 57 54 53 54 55 54 51 48 49 50 49 48 48 48 48 47 46 46 47 47 49 50 50 50 51 52 54 55 56 56 56 57 58 60 61 61 62 62 62 63 64 65 66 67 69 70 71 72 72 73 73 73 74 74 75 76 76 77 77 77 77 77 77 77 77 76 76 75 75 74 74 74 73 72 71
42 41 40 39 38 39 42 45 44 45 49 49 51 57 53 46 50 57 59 61 61 59 55 52 50 50 51 51 48 46 46 48 47 46 44 43 42 42 43 46 48 49 50 51 51 51 52 53 55 55 56 56 57 58 59 60 61 61 61 62 63 64 66 67 68 68 70 71 71 72 72 73 73 73 74 75 75 76 77 77 77 77 77 77 77 77 76 76 75 75 74 74 74 73 73 72 71
Wind_Direction
263 265 268 272 278 282 284 284 285 285 281 278 278 282 293 305 308 306 296 290 290 294 298 293 286 288 289 284 283 283 280 279 279 281 280 277 278 276 267 263 262 265 271 276 280 280 278 276 273 270 267 265 263 264 264 265 265 265 265 265 266 267 268 268 269 270 271 272 273 274 275 276 278 280 282 283 284 286 288 289 290 290 291 292 292 292 292 290 290 291 293 294 294 295 297 298 298
262 264 267 271 276 281 284 285 286 285 282 279 278 280 291 302 303 299 294 292 292 294 292 284 282 284 282 280 283 282 275 274 275 276 275 276 275 273 271 267 263 261 263 266 270 273 275 276 275 274 272 270 268 268 268 268 268 267 267 266 265 265 266 267 267 268 270 271 272 275 276 278 279 280 281 282 284 286 287 288 288 288 289 289 289 290 290 290 289 290 291 291 292 293 294 295 295
263 265 267 270 275 279 282 285 285 285 281 278 278 280 291 299 298 297 296 296 295 295 291 284 285 284 278 277 281 279 270 264 266 269 271 273 272 270 269 269 268 265 265 266 266 267 270 272 274 275 274 273 271 270 270 270 270 269 268 268 267 266 265 266 267 268 269 270 272 274 275 276 277 278 279 281 282 284 284 284 285 285 285 285 286 287 287 288 289 289 289 289 289 290 291 292 293
266 266 267 270 274 277 280 283 284 283 281 278 278 282 291 294 294 296 296 295 292 294 291 283 285 285 281 278 278 275 269 260 260 264 268 272 272 270 267 267 269 270 272 273 272 269 268 269 269 270 271 271 271 270 270 270 269 269 269 269 269 268 267 267 267 267 268 268 269 270 271 273 275 277 279 280 282 283 283 283 284 284 285 285 286 286 286 288 289 289 289 288 288 290 291 292 292
268 267 267 268 272 275 279 283 282 281 280 280 279 281 287 290 293 298 296 294 293 294 290 284 285 285 283 282 276 271 266 259 258 262 266 271 272 271 268 267 268 271 275 276 276 275 272 271 270 270 269 270 270 270 271 271 271 270 270 269 269 268 267 267 266 266 266 266 267 268 270 272 274 276 278 280 282 283 283 284 284 284 286 287 288 287 288 289 289 290 290 290 290 290 291 292 293
268 268 267 267 270 272 276 281 280 279 278 279 279 280 284 288 295 298 294 293 293 291 288 286 286 284 286 285 276 270 267 260 254 255 257 259 263 266 265 265 267 271 274 275 274 274 274 274 273 272 270 270 270 270 271 272 273 272 271 270 269 268 268 267 266 267 267 267 268 269 270 272 274 275 277 279 280 281 282 282 283 284 286 288 288 287 288 289 289 290 291 292 292 292 292 293 294
268 269 268 268 269 271 274 277 278 278 278 278 278 280 284 291 294 290 289 292 291 287 285 285 284 282 284 284 276 270 268 263 256 254 250 248 252 255 257 259 263 268 270 270 269 269 270 270 270 270 269 268 267 267 268 269 270 271 270 270 269 269 268 268 268 268 268 269 269 270 271 272 274 275 276 277 278 279 279 280 281 282 284 285 286 286 287 287 288 289 291 293 293 293 293 292 292
268 269 270 270 271 271 273 276 278 279 279 278 277 279 283 290 293 291 295 297 293 289 283 281 281 281 283 284 278 269 263 258 256 256 256 251 247 247 251 255 261 265 266 265 264 264 264 265 265 265 265 265 265 264 264 265 266 267 267 267 267 267 267 268 268 268 269 269 269 270 271 272 272 273 274 275 276 277 278 279 280 281 282 283 284 285 285 286 287 289 291 291 291 291 290 289 290
268 268 269 270 272 272 272 274 277 278 278 276 276 279 280 283 288 291 297 297 293 289 284 283 282 281 285 285 279 271 262 256 251 252 254 252 249 248 252 257 261 263 263 261 259 258 258 260 260 259 259 259 260 260 260 261 261 262 264 265 266 266 266 266 266 267 267 268 269 269 270 270 271 272 273 274 275 276 277 278 279 281 282 283 283 284 285 287 288 290 290 288 286 287 287 288 289
269 268 268 268 269 271 270 270 274 277 276 275 277 279 278 277 277 284 294 296 292 288 287 287 284 283 285 285 280 272 263 257 253 250 249 248 249 251 254 257 258 257 256 256 255 254 253 254 254 253 252 253 254 255 256 256 258 259 260 262 263 264 265 265 265 265 266 267 267 268 269 269 270 271 272 273 273 274 276 277 279 280 281 282 282 283 285 286 287 288 288 287 287 288 289 289 288
269 268 268 268 268 269 269 267 271 275 276 276 278 280 280 275 273 279 288 290 287 285 284 282 283 285 284 283 278 269 258 254 253 249 249 248 248 248 248 250 251 250 249 250 252 252 251 250 250 249 248 248 250 251 252 253 255 257 258 259 261 262 263 264 264 265 265 265 266 267 267 268 268 269 270 271 272 274 275 276 278 279 280 281 282 282 283 284 285 287 288 290 293 295 296 294 291
268 268 268 268 269 269 269 267 269 271 273 276 278 283 285 281 279 283 284 284 284 283 281 278 281 286 285 283 276 267 256 249 248 247 248 248 248 246 244 243 244 245 245 246 249 250 249 249 248 248 247 247 247 249 250 252 254 255 257 258 259 261 262 263 264 265 265 266 266 267 267 267 267 268 269 270 272 273 274 275 276 278 280 281 282 283 283 285 287 289 292 294 298 299 299 299 294
265 267 266 266 267 269 270 269 268 267 269 273 277 282 285 283 282 284 284 284 285 284 282 280 281 282 282 281 273 266 257 248 246 246 247 247 247 248 245 242 241 240 240 241 244 247 247 247 247 247 247 247 247 249 251 252 252 254 256 257 259 260 262 263 264 265 266 267 267 267 267 267 267 267 268 269 271 272 273 274 276 279 281 283 283 285 287 287 290 293 295 297 299 298 298 300 294
264 265 265 265 264 266 269 269 269 266 266 269 273 277 279 279 278 279 281 281 283 284 282 280 276 273 274 275 271 265 257 250 250 249 248 247 245 246 244 242 241 238 235 235 237 241 243 245 246 246 246 246 247 247 250 252 252 253 254 256 258 259 260 261 261 262 262 262 262 262 262 262 262 262 264 266 268 270 272 274 278 281 283 284 285 288 290 291 293 295 298 298 299 300 301 303 296
263 264 265 265 264 265 266 266 267 265 264 266 269 272 273 274 275 276 277 277 281 283 281 278 274 270 269 272 272 267 258 253 253 250 244 242 242 242 239 238 239 237 233 230 232 235 237 240 243 244 244 245 245 245 246 248 249 249 249 250 251 252 252 252 252 252 251 250 250 250 250 251 253 255 258 262 267 271 275 278 282 285 287 288 289 291 293 294 296 297 300 300 300 301 302 302 296
262 263 264 266 266 265 266 266 265 263 263 265 267 269 270 272 274 274 275 275 281 284 283 280 274 270 266 266 268 265 259 254 254 250 241 237 237 237 236 234 235 234 232 228 228 231 232 234 237 241 242 242 241 241 241 241 242 242 240 238 238 239 239 238 238 239 239 238 239 240 242 244 247 251 256 261 267 271 276 281 284 287 289 290 291 292 294 295 296 297 298 299 300 300 301 299 294
263 262 263 265 266 265 266 266 264 262 263 265 266 269 271 271 272 273 273 275 280 283 284 283 276 269 264 262 262 262 259 254 254 252 243 237 235 235 234 233 233 233 232 228 225 227 229 229 231 235 237 238 237 235 234 233 233 233 232 230 229 230 232 232 233 234 235 236 238 240 244 247 251 254 259 263 267 270 275 279 282 284 286 288 290 291 293 294 295 296 297 298 298 298 300 297 293
267 264 263 263 264 265 265 263 262 262 263 264 265 268 270 270 272 272 272 274 277 280 284 282 276 272 265 260 257 257 257 254 254 253 248 240 235 236 236 234 234 234 233 230 225 224 226 228 228 230 233 233 231 230 229 227 227 228 228 228 227 228 230 232 234 236 237 239 243 246 249 252 256 259 263 266 269 272 275 277 280 282 284 286 288 289 291 293 294 295 297 297 297 298 300 298 296
271 269 265 263 263 263 262 261 263 264 262 263 264 267 269 271 273 272 272 273 274 279 282 277 275 275 269 263 258 255 257 258 255 253 250 244 237 237 239 239 238 237 236 233 229 226 226 227 227 227 228 231 230 228 227 226 226 227 228 228 228 229 231 234 237 240 241 243 245 249 252 255 258 263 266 269 271 274 276 278 279 281 283 285 286 288 289 291 292 293 295 295 296 297 299 299 298
271 271 268 266 264 261 260 262 264 264 263 262 264 266 268 272 273 273 274 271 275 281 278 275 278 277 272 265 260 256 257 259 258 255 253 250 244 240 241 243 243 242 240 239 238 233 228 228 228 227 227 228 230 230 230 229 228 229 230 231 232 234 236 238 242 245 247 248 249 251 255 257 260 264 268 270 272 275 277 279 280 281 282 284 285 286 287 288 289 290 291 292 293 294 295 295 295
271 271 271 270 266 262 260 262 263 264 264 262 262 264 267 271 272 276 274 270 280 283 275 276 280 279 275 269 260 255 253 254 255 256 256 255 251 248 246 246 246 245 243 245 246 243 236 232 229 229 229 230 231 231 232 232 233 234 234 235 237 239 241 242 245 248 251 253 254 255 258 261 262 264 267 270 272 274 276 278 279 279 280 281 282 283 284 286 287 288 288 289 290 291 292 292 292
271 271 273 272 269 266 262 261 262 263 263 262 262 263 265 267 271 276 275 275 284 281 275 276 278 280 280 275 265 256 251 250 251 254 256 257 257 257 255 253 252 250 247 247 248 248 246 241 236 233 232 233 234 235 235 235 236 238 240 242 243 244 244 246 248 250 253 256 258 258 260 262 263 265 267 269 271 272 273 275 277 278 278 279 280 281 282 283 285 286 287 288 289 290 290 291 291
271 272 274 275 273 269 264 261 261 262 262 262 262 263 264 266 270 273 274 280 285 278 274 274 275 279 280 277 271 262 255 250 250 251 253 256 258 259 259 258 258 256 253 251 248 248 247 247 245 242 238 236 236 238 239 240 240 241 243 246 247 248 248 250 251 253 254 256 259 261 262 263 264 265 267 269 270 271 272 274 276 277 278 279 280 281 281 282 284 286 287 288 289 289 290 290 291
271 272 273 275 274 271 266 261 260 261 262 263 263 262 263 266 268 267 270 281 283 276 273 271 274 277 278 278 273 266 260 256 252 250 252 256 257 257 258 259 260 259 257 257 254 250 249 248 248 247 246 243 241 241 241 242 244 245 246 247 249 250 251 253 255 256 257 258 259 261 263 264 265 265 266 268 270 272 273 274 276 277 278 280 281 281 282 283 284 285 287 288 289 289 290 290 290
269 272 272 272 273 272 269 264 260 261 262 262 262 262 262 265 265 263 268 278 277 273 270 270 273 275 277 279 274 267 262 260 256 253 255 260 260 258 258 259 259 260 261 260 258 255 253 251 251 251 251 249 248 246 245 245 246 247 248 249 250 251 252 254 256 258 259 260 261 262 264 265 266 266 266 266 268 270 272 273 275 276 277 279 281 281 283 284 284 285 286 287 288 289 289 289 290
269 271 272 272 271 272 271 267 263 262 263 261 261 261 261 263 263 261 267 274 271 270 271 272 273 272 274 276 276 271 263 259 257 256 260 263 263 262 261 260 259 262 263 263 261 260 257 255 254 254 255 255 254 253 251 249 248 249 249 250 251 252 253 254 256 258 260 261 262 262 263 265 267 267 267 267 268 269 271 273 274 275 277 278 279 281 282 283 284 284 285 286 287 287 287 288 289
267 268 271 272 272 271 271 270 267 264 263 262 260 259 258 259 259 259 266 270 268 268 270 272 272 271 271 272 275 275 268 261 257 260 263 263 264 263 263 263 262 263 265 265 265 264 263 260 258 257 257 257 258 258 257 255 254 253 252 252 253 253 254 254 256 258 260 261 262 263 263 265 267 268 270 270 270 270 271 273 274 275 276 277 279 280 281 282 282 283 283 284 285 285 286 286 287
267 267 268 270 271 271 271 272 271 267 265 263 261 258 256 255 256 259 264 265 266 267 267 270 270 270 270 270 272 274 271 264 259 262 264 263 263 262 264 265 263 264 266 267 268 268 267 265 264 263 262 261 260 259 259 259 259 258 257 257 256 257 257 257 257 258 260 261 263 264 264 265 266 268 270 272 272 272 272 273 274 275 276 277 279 279 280 280 280 281 281 282 283 284 284 285 285
266 267 267 267 269 270 272 274 275 273 270 266 263 260 257 255 257 260 262 261 264 265 266 268 269 268 268 268 270 271 271 267 263 262 262 262 262 262 264 265 264 264 265 268 269 269 270 269 268 267 267 266 264 263 262 262 262 262 261 261 260 260 260 260 259 260 261 263 264 265 265 265 266 267 269 271 273 273 273 272 273 274 275 276 277 278 279 279 279 279 280 281 282 283 283 284 284
265 265 266 266 268 269 271 274 276 277 273 267 265 263 258 255 256 259 260 259 261 264 264 265 266 267 267 268 269 269 270 269 267 265 262 261 261 261 263 265 265 265 266 268 270 271 272 272 272 271 270 269 268 267 266 266 266 266 265 265 264 264 263 263 262 262 262 263 265 266 267 267 267 267 268 270 271 272 273 273 273 273 274 274 275 276 277 278 279 279 280 281 282 283 283 283 284
263 263 265 266 267 268 270 273 275 276 274 268 266 264 260 256 254 256 259 258 260 262 262 260 260 263 265 267 268 268 269 270 270 267 263 260 260 261 263 265 265 265 267 270 272 274 275 275 275 274 273 271 270 269 268 269 269 268 268 267 267 266 265 265 265 264 264 264 264 265 266 267 268 268 268 269 270 271 272 274 274 274 275 275 276 277 277 278 279 280 281 282 282 283 283 284 284
262 262 263 265 267 269 270 270 271 273 272 267 264 263 262 258 253 252 255 257 259 261 260 259 258 258 261 263 266 267 269 270 271 269 265 261 260 261 263 266 267 267 269 271 273 274 276 277 277 277 275 274 272 271 269 269 269 269 268 268 267 267 266 266 266 265 265 265 265 265 266 267 268 269 269 269 270 271 272 273 275 276 277 278 278 279 279 280 280 281 282 282 283 283 284 284 284
262 262 263 264 266 268 268 267 267 268 267 264 262 262 263 261 256 251 253 257 259 261 260 259 259 258 258 261 264 267 269 270 270 269 267 263 261 261 262 263 265 267 269 271 272 273 274 275 276 276 275 275 274 273 271 270 269 268 267 266 266 266 265 265 265 265 266 266 266 266 267 268 269 270 270 271 272 272 273 274 276 277 278 279 280 280 281 281 282 282 282 283 283 284 284 285 285
264 262 262 263 264 265 265 264 264 264 264 265 264 262 262 262 260 255 253 256 259 262 261 258 258 258 258 260 263 265 266 268 268 268 267 264 260 258 259 261 263 265 267 269 270 271 271 271 272 272 272 272 272 272 272 271 270 269 268 267 266 265 265 265 265 266 266 267 267 268 268 269 269 270 271 272 273 274 275 275 276 277 278 279 280 281 281 282 282 283 283 284 285 285 285 285 286
265 263 261 261 261 262 264 264 263 262 262 264 266 265 263 263 262 257 253 255 257 261 263 259 257 258 259 260 262 263 264 265 266 266 267 265 263 261 261 263 265 266 266 267 268 268 268 268 268 269 270 270 270 270 270 269 269 269 269 269 268 267 266 266 266 266 267 267 268 269 269 269 270 271 271 272 273 274 275 276 277 277 278 279 280 281 282 283 284 284 285 285 286 286 286 286 286
263 262 260 259 259 260 263 264 264 262 261 262 266 267 266 264 262 259 255 255 256 258 262 262 259 257 258 260 262 263 263 263 264 265 266 267 267 266 265 265 266 267 267 267 267 267 268 268 268 269 270 270 270 270 270 270 269 269 269 269 269 268 268 268 268 268 268 269 269 269 270 270 271 272 273 273 274 275 276 277 278 279 280 281 282 283 284 285 285 285 285 285 285 286 286 286 285
263 262 260 259 259 260 261 263 263 264 262 260 263 265 267 267 265 262 259 257 256 257 261 263 263 260 257 258 260 262 263 264 265 265 266 267 267 265 264 264 266 268 268 268 269 269 269 269 269 270 270 271 271 272 271 271 271 270 270 270 269 269 269 269 269 269 270 270 270 271 271 272 273 274 275 276 277 278 279 279 280 281 282 282 283 283 284 285 285 285 286 286 286 286 285 285 285
262 262 261 259 259 260 261 262 262 264 264 261 260 262 265 267 267 266 263 259 257 259 263 265 266 263 257 255 257 259 262 264 265 266 265 265 264 262 262 264 266 268 269 269 270 270 270 270 270 270 271 272 273 272 272 272 271 271 271 270 270 270 270 270 271 271 272 273 273 274 275 276 277 277 278 278 279 280 280 280 281 282 282 283 283 284 285 285 285 286 286 286 286 286 286 286 286
261 262 262 260 260 261 261 262 262 263 264 262 260 261 262 265 268 268 268 265 260 259 262 266 269 265 257 255 256 257 259 262 264 266 266 265 265 264 265 267 268 269 269 270 270 270 270 270 269 270 271 272 272 272 272 272 271 271 271 271 271 271 272 273 273 274 275 275 276 277 277 278 279 279 279 280 280 281 281 282 282 283 283 284 284 285 285 286 286 286 286 286 287 287 287 287 286
261 262 262 261 261 262 262 262 263 263 263 263 263 262 260 263 268 269 270 271 265 260 259 262 267 269 259 252 254 256 257 260 263 266 267 267 266 266 266 267 268 269 269 270 271 271 270 270 269 269 270 271 271 271 271 272 272 272 272 272 272 273 273 273 274 274 275 276 277 278 278 279 279 280 280 281 281 282 282 283 284 284 285 285 286 287 287 288 288 288 288 288 288 288 287 287 287
261 262 263 263 263 263 262 263 265 264 262 262 264 264 261 262 267 269 269 270 267 263 260 258 262 268 263 253 251 254 257 259 262 265 267 266 265 265 265 267 268 269 270 270 271 271 270 270 270 270 271 271 271 272 272 273 273 273 274 274 274 275 275 275 275 275 276 276 277 278 278 279 279 280 280 281 282 283 284 284 285 286 287 288 289 289 290 290 290 290 289 289 289 288 288 287 287
260 262 264 264 264 264 264 264 266 266 263 262 263 264 263 261 264 267 270 270 269 268 264 261 261 266 268 263 256 252 253 257 259 262 266 266 265 265 265 266 268 269 270 271 271 271 270 270 270 271 272 273 273 273 273 273 274 275 275 276 276 276 277 277 278 278 279 279 280 280 280 281 281 282 283 284 285 286 286 287 288 289 290 290 290 290 290 290 290 290 289 289 288 288 287 287 286
260 261 264 265 265 266 265 265 266 267 265 262 261 263 265 263 262 265 269 271 272 272 270 267 265 266 269 272 268 259 253 253 256 259 262 265 265 265 265 265 266 268 269 270 271 270 270 270 271 272 273 273 274 274 274 274 275 276 277 277 278 278 279 279 280 281 281 282 283 283 284 284 285 286 286 287 288 288 289 290 290 291 291 291 290 290 290 290 290 289 289 288 288 287 287 286 286
260 261 263 264 265 266 265 265 266 266 266 263 262 263 265 264 264 264 267 270 273 276 277 274 270 269 270 271 274 272 265 257 255 256 258 260 262 263 263 264 265 267 268 269 269 269 270 270 271 272 272 273 273 274 274 275 276 277 277 278 279 280 280 281 281 282 282 282 283 284 285 286 286 287 288 289 289 290 290 291 291 291 290 290 290 290 290 289 289 289 288 288 287 287 286 286 286
261 261 262 263 264 265 265 266 266 266 266 265 264 265 265 266 267 266 266 269 274 277 277 276 274 273 272 271 271 273 275 268 260 257 257 259 260 261 262 263 264 265 266 267 267 268 269 270 271 271 272 272 273 273 274 275 276 276 277 278 279 280 281 281 281 282 282 283 283 285 286 287 288 288 289 289 290 290 290 290 290 290 290 290 290 290 290 290 289 289 289 288 288 287 287 286 286
262 262 262 262 264 265 265 265 266 266 266 265 267 268 268 268 267 268 269 269 272 274 273 273 274 274 273 272 270 269 274 275 267 261 260 260 260 261 261 262 262 262 263 264 265 266 267 268 269 270 271 272 273 274 274 275 276 276 277 278 279 279 280 280 281 281 282 283 284 286 287 288 288 289 289 289 289 289 290 290 290 290 290 290 290 290 291 291 290 290 290 289 289 288 287 287 287
264 264 265 265 265 267 268 268 269 269 267 266 268 271 272 270 267 267 271 271 271 272 272 272 272 272 273 273 271 269 270 275 273 265 261 261 260 260 260 258 258 259 259 261 262 264 265 267 268 269 271 272 273 274 274 275 275 276 277 277 278 279 279 280 280 281 282 284 285 286 287 288 289 289 289 289 290 290 290 291 291 291 291 291 291 292 292 292 292 291 291 290 290 290 289 289 289
264 266 269 271 271 271 272 272 273 273 270 268 269 272 273 272 267 267 270 271 271 272 274 276 275 274 275 274 272 269 268 272 276 270 263 262 261 261 260 258 257 257 258 259 261 263 265 266 268 269 270 271 272 273 274 275 275 276 277 278 278 279 279 280 281 283 284 285 286 287 288 289 289 290 290 290 290 291 291 291 291 292 292 293 293 294 294 294 294 293 293 293 292 292 291 291 291
263 266 268 271 272 272 271 270 271 272 270 270 272 273 273 271 268 269 270 271 273 275 276 278 278 278 279 277 274 271 268 270 275 273 265 261 262 261 260 258 257 257 258 260 261 263 265 267 268 270 271 272 273 274 275 275 276 277 278 278 279 279 280 282 283 284 285 286 287 288 288 289 290 290 290 291 291 291 291 292 292 293 293 294 295 295 296 296 295 295 295 295 294 294 293 293 292
263 264 265 267 269 271 270 269 271 272 271 272 275 276 274 270 268 269 271 272 274 275 275 276 277 278 279 279 277 274 269 269 272 273 266 261 260 259 258 257 256 257 258 259 261 263 265 267 269 270 271 272 273 274 275 276 278 278 279 280 281 281 283 284 285 286 287 288 289 289 290 290 290 291 291 292 292 293 293 294 295 295 296 297 297 297 297 297 297 297 297 296 296 295 294 294 293
263 264 266 267 268 271 272 272 274 275 273 272 274 274 272 271 270 269 271 272 273 273 274 275 276 277 278 277 278 276 272 270 271 271 267 263 261 259 257 255 255 256 257 259 261 263 265 267 269 270 271 273 274 275 277 278 280 281 282 283 283 284 285 286 287 288 289 290 291 291 291 292 292 293 293 294 294 295 296 297 298 298 298 299 299 298 298 298 298 298 298 297 297 296 295 294 294
265 266 268 268 270 273 275 274 275 277 275 271 272 273 272 271 270 270 272 273 274 275 275 276 278 279 278 276 276 275 274 273 273 271 269 267 264 261 257 255 255 256 257 258 260 262 264 266 268 270 272 273 275 277 279 281 282 284 285 285 286 286 287 288 289 290 291 292 293 293 294 294 295 295 295 296 297 298 299 300 300 300 300 300 300 299 299 299 299 299 298 298 297 296 295 294 294
269 269 269 271 273 275 277 276 275 277 276 273 273 274 274 272 270 269 273 276 277 278 278 278 279 279 279 278 276 274 274 275 274 272 270 268 265 261 258 258 257 257 257 258 260 262 264 266 269 271 273 275 278 280 282 284 285 286 286 286 287 288 289 290 291 293 294 294 295 295 295 296 296 297 297 298 299 300 301 301 302 302 301 301 300 300 300 300 300 299 298 298 297 296 295 294 293
270 271 273 276 276 275 277 279 278 278 279 277 275 275 274 273 271 269 272 276 277 277 277 277 277 277 278 280 279 277 275 274 273 271 270 268 265 262 261 259 258 257 258 259 261 263 265 268 271 273 276 278 281 283 285 286 286 286 287 288 289 290 291 293 294 295 295 295 296 296 296 297 297 298 299 300 300 301 302 302 302 302 302 301 301 301 301 301 300 299 299 298 297 296 295 295 294
273 273 273 274 275 274 275 279 281 282 286 285 280 278 276 274 272 271 272 274 275 275 274 273 273 274 277 280 281 280 277 275 273 271 269 268 267 265 263 261 260 260 261 263 264 266 268 272 275 277 279 281 283 285 286 287 286 287 288 289 290 292 293 295 295 296 296 296 296 296 297 298 298 299 300 301 301 302 302 303 303 303 302 302 302 302 302 302 301 300 299 298 297 296 296 295 295
278 275 274 272 273 275 275 278 282 285 290 290 286 282 279 277 276 274 273 274 274 274 272 270 269 270 274 279 281 280 278 275 273 271 269 269 268 267 266 265 264 265 266 266 268 271 273 276 278 280 281 283 285 286 286 286 287 288 289 291 292 294 295 295 296 296 296 296 296 297 298 298 299 300 301 301 302 303 303 303 303 303 303 303 303 303 303 302 301 300 299 298 297 297 296 295 295
277 275 276 277 278 280 280 281 282 286 290 292 292 287 283 281 280 277 275 274 273 273 272 269 267 268 272 277 279 277 274 272 271 270 269 268 268 267 266 266 267 268 269 271 273 275 277 278 280 281 283 284 285 286 286 286 287 289 291 292 294 295 295 295 295 296 296 296 297 297 298 299 300 300 301 302 302 303 303 304 304 304 304 304 304 303 303 302 301 300 300 299 298 298 297 296 296
275 272 272 275 279 282 284 284 283 287 290 292 294 291 287 286 285 280 276 274 272 272 269 266 266 269 272 276 275 272 269 266 265 266 267 266 265 263 264 266 269 271 273 274 276 277 278 279 280 281 283 284 285 285 286 287 289 290 292 293 294 294 295 295 295 295 295 296 297 297 298 299 300 300 301 302 303 303 304 304 304 304 304 304 303 303 302 302 301 300 299 299 298 298 298 298 297